Theta_e
308 308 308 309 308 308 307 307 307 306 305 305 305 305 305 305 305 305 305 306 307 308 307 307 307 305 306 312 312 309 311 312 312 313 315 314 313 313 314 315 316 319 321 323 327 330 331 332 332 332 331 331
308 308 309 309 308 307 307 307 306 305 305 305 305 305 305 305 305 305 306 306 307 308 308 308 308 307 308 312 312 310 311 312 313 314 316 316 314 314 316 317 318 320 322 323 326 329 330 331 331 331 330 331
307 308 308 308 308 307 307 306 305 304 304 305 305 305 305 305 305 305 305 306 307 308 309 309 309 309 309 311 311 311 311 313 314 315 317 317 317 317 318 318 319 321 323 324 326 329 330 330 330 330 330 330
307 307 307 307 307 308 307 305 304 303 304 304 305 305 305 305 305 305 305 305 306 307 309 309 310 310 310 311 311 311 311 313 314 315 317 318 318 319 319 319 320 321 323 325 326 328 328 329 329 329 329 329
307 307 307 307 308 308 306 303 303 303 303 303 304 305 305 305 305 305 305 305 306 307 308 309 310 311 311 310 310 311 311 312 314 315 316 317 318 319 319 319 320 321 322 323 325 326 326 326 327 328 328 328
308 308 308 308 308 307 304 302 302 302 302 301 302 303 304 304 305 305 305 305 305 306 308 309 310 310 310 310 310 310 310 312 313 314 315 316 317 318 318 318 319 320 321 321 322 323 323 324 325 326 326 327
308 308 308 308 307 305 303 302 301 301 301 301 301 301 302 302 303 304 305 304 305 305 307 308 309 310 310 310 310 310 310 311 312 313 314 314 315 316 317 317 318 319 321 321 322 322 322 323 324 325 325 326
309 309 308 307 306 304 302 301 301 300 300 300 300 300 301 301 302 303 303 304 305 305 305 306 308 308 309 309 309 310 309 309 311 312 312 313 314 315 315 316 316 317 319 321 322 323 323 323 323 324 325 325
309 308 307 306 304 303 302 300 299 299 299 299 299 300 300 300 301 302 302 302 304 305 305 305 306 307 308 308 308 308 308 308 310 311 312 313 313 313 314 315 316 316 317 319 321 322 323 323 323 323 323 323
307 307 306 304 303 301 300 299 298 298 298 298 298 299 299 299 300 300 300 300 302 304 304 305 305 306 307 306 306 307 307 307 308 309 311 312 313 313 313 314 316 316 317 318 319 320 321 322 322 321 321 321
305 304 303 302 301 299 298 297 297 297 298 298 298 299 299 299 299 299 298 298 300 301 303 304 305 306 306 306 306 306 306 306 307 308 310 311 312 313 314 314 314 315 316 317 318 318 319 319 320 320 320 319
303 302 301 300 299 298 297 297 297 297 297 298 298 298 298 298 298 298 298 298 298 299 301 303 304 305 306 306 305 306 306 306 306 308 309 309 310 312 313 313 314 314 315 316 316 317 317 317 318 318 318 318
302 300 299 298 297 297 297 297 297 297 297 297 297 298 298 298 298 298 298 298 297 297 298 299 302 304 304 305 306 306 306 305 306 307 307 308 308 309 311 312 313 313 314 314 314 314 315 315 316 316 316 316
300 298 297 297 297 296 296 296 296 297 297 297 297 297 297 297 298 298 297 298 298 298 298 299 301 303 303 305 306 306 305 305 306 306 306 307 307 308 309 310 311 311 312 312 312 312 312 313 313 314 314 314
298 297 296 296 296 296 296 296 296 296 297 297 297 297 297 297 297 297 297 297 297 298 299 300 301 302 303 302 302 303 303 304 306 306 306 306 306 307 308 308 309 309 309 309 310 310 310 311 311 311 312 312
297 296 296 296 296 296 296 296 296 296 296 296 296 296 296 296 296 296 296 296 297 297 297 298 299 300 302 302 300 300 301 303 305 305 306 307 306 306 307 306 307 307 307 307 307 308 308 309 309 309 309 310
296 296 296 296 296 296 296 296 296 296 296 296 296 296 296 296 296 296 296 296 296 296 296 296 297 297 299 300 300 300 301 302 303 304 304 305 304 305 306 306 306 306 306 306 305 306 306 307 307 308 308 308
296 296 296 296 296 296 296 296 296 295 295 295 295 295 295 295 295 295 295 295 295 295 295 295 296 296 296 297 298 299 300 301 303 303 304 304 304 304 304 305 306 306 306 306 305 305 305 306 306 306 307 307
296 296 296 296 295 296 295 295 295 295 295 295 294 294 294 294 294 294 294 294 294 294 295 295 295 295 295 295 295 296 297 298 299 301 302 303 303 302 302 303 304 304 305 305 305 305 304 305 305 305 306 305
296 296 296 295 295 295 295 295 295 294 294 294 294 294 294 294 294 294 294 294 294 294 294 294 294 294 295 295 295 295 295 295 296 297 297 298 299 299 298 299 300 301 302 303 303 302 302 303 303 304 304 304
295 295 295 295 295 295 295 294 294 294 294 294 294 294 294 294 294 294 294 294 294 294 294 294 294 294 294 294 294 294 294 294 295 295 295 295 296 296 296 297 298 299 300 301 301 300 300 301 302 302 302 302
295 295 295 295 295 295 294 294 294 294 294 294 294 294 294 294 294 294 294 294 293 293 293 293 293 293 293 294 294 294 294 294 294 294 294 294 295 295 295 296 297 298 300 300 300 300 299 299 300 301 300 300
295 295 295 295 295 295 294 294 294 294 294 294 294 294 294 293 293 293 293 293 293 293 293 293 293 293 293 293 293 294 293 294 294 294 294 294 294 294 294 295 296 296 298 299 300 299 298 299 299 299 299 298
295 295 295 295 295 294 294 294 294 294 294 294 294 294 293 293 293 293 293 293 293 293 293 293 293 293 293 293 293 293 293 293 294 294 293 294 294 294 294 294 295 295 296 298 299 299 299 299 298 297 297 297
295 295 295 295 294 294 294 294 294 294 294 294 293 293 293 293 293 293 293 293 293 293 293 293 293 293 293 293 293 293 293 293 293 293 293 293 293 294 294 294 294 294 295 296 297 297 297 297 296 296 297 296
295 295 295 295 294 294 294 294 294 294 294 293 293 293 293 293 292 292 292 292 292 292 292 292 292 292 292 293 293 293 293 292 292 292 292 293 293 293 294 294 294 294 295 295 296 296 294 295 296 296 296 295
295 294 295 295 294 294 294 294 294 294 294 293 293 293 292 292 292 292 292 292 292 292 292 292 292 292 292 292 292 292 292 292 292 292 293 293 292 293 293 293 294 294 294 294 295 295 294 294 295 295 295 293
295 295 295 295 294 294 294 294 294 294 293 293 292 292 292 292 292 292 292 292 292 292 292 292 292 292 292 292 292 292 292 292 293 293 292 292 292 293 293 293 293 293 294 293 293 294 294 295 295 293 293 292
294 294 294 294 294 294 294 294 294 294 293 293 292 292 292 292 292 292 291 291 291 291 291 292 292 292 292 292 292 292 292 292 292 292 292 292 292 292 292 293 293 293 293 293 293 293 292 293 293 292 292 292
294 294 294 294 294 294 294 294 294 293 293 293 292 292 292 292 292 291 291 291 291 291 291 291 291 291 291 291 291 292 292 292 292 292 292 292 292 292 292 292 292 293 293 292 293 293 292 292 291 291 292 291
294 294 294 294 294 294 294 293 293 293 293 293 292 292 292 291 291 291 291 291 291 291 291 291 291 291 291 291 291 291 291 292 292 292 292 292 292 292 292 292 292 292 292 292 292 292 292 291 291 292 291 291
Wind_Speed
21 21 22 23 24 26 27 28 29 30 30 29 28 27 25 24 22 21 20 20 21 22 23 24 24 23 20 16 18 20 17 18 19 19 18 20 22 23 23 23 24 23 24 25 26 25 26 26 26 25 23 21
22 22 23 24 25 27 28 30 30 30 29 29 28 27 26 24 22 20 20 20 21 22 23 23 23 22 18 16 17 18 16 17 18 17 17 20 22 22 22 23 23 22 23 25 25 25 26 27 27 27 23 20
22 23 24 25 26 27 28 30 29 29 28 28 27 27 26 24 22 21 20 20 20 21 22 22 21 19 17 15 16 18 16 15 17 17 18 21 22 22 21 22 23 23 24 25 26 26 26 27 27 27 25 23
22 23 24 25 26 27 29 29 28 27 26 26 26 25 24 24 23 21 20 20 19 19 19 19 17 15 15 16 17 18 15 15 17 18 19 20 21 22 21 21 21 21 22 23 25 27 26 27 27 26 24 24
22 22 23 25 26 28 28 28 27 26 25 25 24 24 23 23 23 21 20 20 19 17 17 17 15 14 15 17 19 18 15 15 17 18 19 19 19 19 18 18 19 19 20 21 22 23 23 24 24 23 23 23
23 23 24 25 26 27 27 26 26 25 25 24 24 23 22 22 22 21 20 20 19 16 15 16 14 14 14 15 17 17 15 15 16 17 17 17 18 17 15 15 16 16 17 18 18 18 19 18 18 20 21 21
23 23 24 25 25 25 25 25 25 24 24 24 24 23 22 22 21 20 20 20 19 16 15 14 13 13 14 13 14 14 14 14 13 14 15 15 15 15 14 14 13 12 13 14 14 15 15 14 14 16 16 16
23 23 23 24 24 24 25 25 25 25 25 24 23 22 22 21 20 19 19 18 18 16 15 14 13 12 13 13 13 13 12 12 12 12 13 13 12 13 13 14 13 11 10 11 12 11 10 10 12 13 13 13
22 22 22 22 23 24 25 26 26 25 24 23 22 21 21 20 19 18 18 17 17 16 14 14 14 12 13 14 15 15 12 11 11 10 12 12 12 13 12 12 13 11 10 10 11 10 9 9 9 9 10 11
20 20 20 21 23 24 25 25 25 24 22 22 21 21 20 19 17 17 17 17 15 15 13 14 14 13 14 16 16 15 12 11 11 10 11 11 12 13 12 11 11 11 9 9 11 10 9 8 7 6 7 7
18 19 19 21 23 24 24 24 23 22 21 21 20 20 20 19 18 18 18 17 15 15 13 13 13 13 14 16 16 15 13 12 11 10 11 11 11 12 11 11 11 11 10 9 9 9 9 9 9 8 8 8
17 18 19 21 22 23 23 22 21 21 20 20 19 19 19 19 18 18 19 18 17 15 14 13 12 13 13 14 15 15 14 12 10 9 10 10 10 11 11 10 9 10 10 10 8 8 8 8 8 8 8 9
17 18 19 20 21 21 21 20 20 20 19 19 19 18 18 18 18 18 19 19 18 17 15 13 12 12 13 13 13 14 15 13 12 10 10 10 10 10 10 10 9 8 9 9 9 8 7 6 5 6 7 7
17 18 18 19 19 19 19 19 19 19 19 18 18 18 18 18 18 19 19 19 19 18 17 15 13 12 12 12 11 12 13 13 13 12 11 11 10 10 9 9 8 7 7 8 8 8 8 7 7 7 6 6
16 16 17 17 17 17 17 18 18 18 18 17 18 18 18 18 18 18 18 18 18 18 17 16 15 13 12 12 12 12 11 11 11 12 11 10 10 11 11 9 8 7 7 7 7 8 8 8 9 8 8 7
15 15 16 16 16 16 16 16 16 17 17 17 17 17 17 17 17 17 18 18 18 17 16 16 15 14 13 13 14 12 9 9 10 11 10 10 10 11 11 9 8 7 7 7 7 7 8 8 8 8 8 7
14 14 14 15 15 15 15 15 16 16 16 17 17 17 17 17 17 17 17 17 17 17 16 16 16 15 13 13 14 12 10 8 8 9 10 10 10 10 9 7 7 7 6 7 8 7 8 8 8 8 8 7
13 13 13 13 14 14 14 15 15 16 16 17 17 17 17 17 17 16 17 17 16 16 16 16 16 15 15 14 13 13 12 10 9 9 10 11 9 7 7 6 6 6 6 7 7 7 7 7 6 7 7 8
12 12 11 12 13 13 14 15 15 15 16 16 17 17 17 17 17 17 17 16 16 16 16 16 15 15 15 14 14 13 13 12 11 10 10 10 8 7 7 6 6 6 6 6 6 6 6 6 5 5 6 7
11 11 11 12 13 13 14 15 15 15 16 16 16 17 17 17 17 17 17 17 16 16 16 16 15 15 15 15 15 14 14 13 12 12 12 11 9 8 7 5 5 6 5 5 6 6 5 5 4 4 4 5
11 11 12 12 13 14 14 15 15 15 16 16 16 16 17 17 17 17 17 17 17 17 17 16 16 15 15 14 14 14 14 13 12 12 12 12 11 10 9 5 3 5 4 4 4 4 4 2 3 3 3 3
10 12 13 13 14 14 15 15 16 16 16 16 16 17 17 17 18 17 17 17 17 18 17 17 16 15 15 14 14 13 13 13 12 11 11 11 11 10 10 7 4 3 3 3 3 3 1 1 1 2 3 4
10 12 13 14 15 15 15 15 16 17 16 16 17 17 17 17 18 17 18 17 17 17 17 17 17 16 16 15 14 13 13 12 12 12 11 11 10 10 10 9 6 5 3 2 3 3 3 2 1 1 3 4
10 12 13 14 15 15 15 16 16 17 17 17 17 17 18 18 18 18 18 18 17 17 17 17 17 17 16 15 15 14 13 13 13 13 12 11 10 9 8 8 7 5 3 1 2 4 4 3 2 1 2 5
9 10 12 13 14 15 16 16 16 17 17 17 17 18 18 18 18 18 18 17 17 17 17 17 17 17 16 16 15 15 15 15 14 14 13 12 11 9 8 6 5 5 3 2 2 3 3 3 2 1 1 6
8 9 11 13 14 15 16 16 16 16 16 16 17 17 17 18 18 17 17 17 17 17 17 17 17 16 16 16 16 16 16 15 14 13 12 12 11 10 9 6 5 4 2 2 2 2 2 2 1 1 1 7
7 9 10 12 13 15 15 16 17 17 17 17 18 17 17 17 17 17 17 17 17 17 17 17 17 17 16 16 16 16 15 15 14 12 12 11 11 10 9 8 6 4 4 3 2 2 2 2 4 3 3 8
7 8 10 12 13 14 15 16 17 18 19 18 17 17 17 17 17 17 18 17 18 17 17 17 17 17 17 17 16 16 16 15 14 13 12 12 11 9 8 8 7 6 6 5 4 2 1 3 4 3 5 10
6 7 8 10 11 13 14 16 16 17 17 16 16 16 17 17 18 18 18 18 18 18 18 18 18 18 17 17 17 16 16 16 15 14 13 12 11 10 9 9 9 8 7 6 6 4 2 2 3 4 9 10
6 6 6 8 10 11 13 14 14 14 15 15 16 17 17 18 19 19 19 19 18 18 18 18 18 18 18 18 17 17 16 16 14 13 12 12 11 10 9 9 9 8 8 8 7 7 5 3 4 7 9 8
7 6 5 6 8 10 11 11 12 14 15 16 17 18 19 19 19 19 19 19 18 18 18 19 19 19 19 19 18 18 17 16 15 14 13 12 11 10 9 8 7 7 8 8 8 7 7 5 6 8 8 7
Wind_Direction
337 336 335 334 332 331 331 332 331 330 329 329 328 327 327 324 320 314 311 308 306 305 304 305 305 303 303 311 306 297 305 309 302 297 297 293 288 285 284 280 274 268 266 267 266 266 266 262 258 257 259 260
335 334 333 331 330 330 331 331 330 330 330 329 329 327 327 325 320 315 311 307 305 304 304 305 305 306 304 310 311 300 307 317 312 312 309 298 293 291 290 285 280 274 268 265 264 266 267 264 261 260 262 261
333 331 330 329 328 329 330 331 330 330 330 330 329 327 326 324 320 315 310 306 304 302 303 305 307 309 304 311 314 301 310 322 314 314 309 298 297 296 293 289 284 279 272 266 263 264 267 268 270 270 267 263
330 329 328 327 327 329 330 330 330 331 331 331 329 327 325 324 321 316 311 307 305 303 304 308 312 313 308 310 308 304 317 319 305 306 305 300 301 299 299 298 292 285 278 272 266 266 268 271 275 277 275 271
326 326 325 325 326 328 330 330 331 332 332 332 330 329 326 324 322 318 314 311 309 307 307 311 315 312 306 306 306 311 321 315 307 307 306 305 303 303 308 310 305 298 288 282 278 274 273 274 277 280 281 281
323 322 323 324 326 328 329 328 329 331 331 331 331 329 328 327 324 320 318 316 314 313 309 309 313 309 306 306 308 316 319 313 312 312 309 308 308 309 312 309 309 311 305 299 295 291 287 284 284 283 284 284
320 319 320 322 325 327 327 326 327 328 328 327 328 328 328 329 326 323 322 320 320 316 309 306 307 308 311 312 312 316 319 314 310 313 312 311 315 315 311 305 304 311 314 311 307 302 297 293 292 284 277 273
319 319 320 323 325 325 324 325 325 325 325 324 325 327 328 328 328 326 324 323 322 319 317 310 305 307 311 315 313 313 315 314 312 315 315 314 318 317 318 322 316 309 306 309 307 300 291 282 280 271 260 256
321 321 322 323 324 323 324 324 325 325 326 325 326 327 329 330 329 327 326 326 326 326 328 322 318 319 319 317 317 319 321 320 321 323 324 324 322 318 323 332 331 323 308 303 303 299 291 277 269 263 257 256
322 322 322 323 323 324 325 325 327 329 330 330 331 333 334 333 331 329 328 330 330 329 333 333 332 334 329 327 329 333 336 328 322 324 330 331 330 330 328 326 327 331 323 305 298 295 295 287 279 281 281 274
321 322 324 325 326 326 327 330 332 334 337 338 338 340 340 340 337 335 333 334 333 331 337 340 337 337 331 334 336 338 341 334 328 328 332 331 329 332 333 328 319 322 329 322 305 296 298 294 287 286 291 296
321 324 327 328 329 329 332 335 337 340 344 345 345 347 348 349 346 344 343 343 342 339 341 339 338 337 330 333 336 337 338 334 331 329 332 335 326 323 328 331 327 324 328 332 329 315 307 298 288 285 286 292
324 327 330 331 332 334 338 340 343 346 348 350 352 353 354 355 354 353 353 353 354 353 348 344 343 339 333 336 337 338 338 333 334 329 329 336 329 325 324 320 327 333 330 332 340 342 335 326 319 310 302 299
328 332 334 335 337 341 344 347 350 352 352 354 356 357 359 359 358 358 358 358 360 0 358 356 354 347 343 341 330 327 332 335 337 334 336 338 331 334 330 318 324 332 333 334 337 343 346 350 356 348 333 327
332 336 339 340 345 348 351 354 356 357 358 359 0 2 4 3 2 1 1 1 0 1 360 357 355 352 346 338 326 321 327 335 335 334 341 343 337 339 338 337 342 340 338 340 343 344 346 352 355 353 353 351
337 342 344 347 352 354 357 360 1 2 2 3 5 6 6 6 5 3 3 2 2 3 1 357 354 351 343 336 337 339 339 339 331 329 333 334 334 335 336 340 344 346 341 339 344 344 345 350 347 349 359 358
343 349 351 353 357 359 1 3 3 3 4 5 6 6 6 5 4 4 3 2 3 3 2 360 357 356 350 341 342 344 341 334 321 316 314 317 320 322 330 341 344 347 344 338 341 344 345 344 341 348 357 356
349 357 359 357 359 2 3 4 4 4 5 5 5 5 5 4 3 3 3 2 1 1 1 0 359 359 358 353 348 343 340 331 318 310 305 309 311 306 313 328 333 333 335 336 340 345 345 342 339 344 347 350
353 1 4 2 2 5 6 5 4 4 5 6 5 4 4 3 3 3 2 2 1 360 359 359 359 359 358 359 356 351 347 343 336 328 321 317 315 306 296 298 301 303 314 322 326 336 337 341 345 345 348 350
353 1 4 5 6 7 7 5 3 3 6 6 4 3 3 2 2 2 0 359 359 358 357 357 357 357 357 357 356 353 351 350 348 342 340 339 337 332 315 296 281 278 287 300 313 329 330 347 4 8 9 359
354 2 5 6 6 7 7 1 359 3 5 3 1 1 360 359 359 357 355 354 353 353 352 353 353 353 353 353 353 352 349 348 349 346 345 345 345 346 341 338 303 277 281 296 311 325 331 13 31 28 34 23
357 5 6 5 4 6 5 357 355 1 1 357 357 357 356 356 355 353 351 350 349 349 348 348 349 348 348 349 350 349 348 346 347 348 347 346 347 350 350 357 359 313 296 294 289 290 299 68 34 25 38 32
2 7 5 2 4 5 1 355 354 356 355 354 354 354 354 353 351 349 349 348 347 347 346 345 345 345 345 345 346 347 345 344 345 347 348 349 351 355 354 354 358 351 332 265 234 229 210 181 155 47 33 16
6 9 4 2 3 1 356 354 354 352 351 353 353 353 353 351 349 348 348 347 347 346 345 344 343 343 344 343 343 344 342 343 345 346 347 348 350 357 360 357 353 347 344 317 230 228 215 204 196 104 37 7
8 9 4 3 1 358 356 355 354 351 350 352 354 355 353 350 349 349 348 348 348 347 345 343 342 342 341 341 342 343 344 346 347 346 346 346 347 349 355 4 4 351 340 326 270 242 238 238 222 177 31 355
8 8 5 4 1 358 357 356 355 353 353 356 357 356 352 350 349 349 349 350 349 348 346 344 343 342 341 342 343 344 346 347 346 344 343 343 344 342 345 358 11 11 358 310 273 265 297 303 296 269 307 342
4 5 4 4 2 360 359 358 357 355 357 360 357 352 351 349 348 349 349 350 349 348 346 345 345 344 344 345 344 345 346 345 343 342 343 344 345 344 345 349 358 9 11 2 328 294 313 307 310 309 303 334
357 359 1 4 4 3 2 0 358 358 359 357 351 348 349 349 349 351 351 352 351 350 349 348 347 347 348 347 346 346 345 344 343 345 347 347 348 350 347 348 357 5 6 10 7 336 300 283 299 304 307 327
340 346 355 4 6 4 2 359 358 358 355 349 348 348 349 352 354 354 353 353 353 352 351 350 350 350 351 350 349 348 346 346 347 349 350 349 350 353 354 356 2 4 3 7 9 5 350 292 287 299 312 327
315 323 347 2 5 3 360 358 356 354 351 349 351 352 354 357 357 356 355 355 354 354 353 351 352 351 351 351 351 350 349 349 348 348 349 352 354 354 358 5 5 2 4 4 5 3 2 348 306 303 313 324
298 304 334 1 4 0 356 354 354 354 354 355 356 356 358 359 358 357 356 355 355 354 353 352 352 351 351 352 351 350 349 348 348 348 350 354 357 356 358 4 6 7 11 9 6 1 355 343 315 307 313 316